Location: Sungai Anya
(2.6167°N, 114.0500°E)
Time: 18:19:06
(UTC+00:00)

Timation 2 Rocket - Pass Details

Date: 19 October 2021
Orbit: 904 x 1077 km, 70.0° (Epoch: 08 December)

Event Time Altitude Azimuth Distance (km) Brightness Sun altitude
Rises 10:43:59 0° 353° (N) 3,806 7.1 -9.1°
Reaches altitude 10° 10:46:43 10° 358° (N) 2,834 6.4 -9.8°
Maximum altitude 10:53:08 52° 73° (ENE) 1,235 4.2 -11.4°
Drops below altitude 10° 10:59:17 10° 148° (SSE) 2,724 6.1 -12.9°
Sets 11:01:51 0° 153° (SSE) 3,647 6.8 -13.5°
